Worland, WY

9:54 AM MST on February 24, 2018 (GMT -0700)
Worland Municipal

Weather History for KWRL - October, 2012

Change the Weather History Date:

Tuesday, October 23, 2012

  Actual Average Record
Temperature  
Mean Temperature 45 °F 43 °F  
Max Temperature 53 °F 58 °F 77 °F (1969)
Min Temperature 36 °F 28 °F 17 °F (1984)
Degree Days  
Heating Degree Days 20 22  
Month to date heating degree days 422 412  
Since 1 July heating degree days 510 669  
Cooling Degree Days 0 0  
Month to date cooling degree days 0 0  
Year to date cooling degree days 901 535  
Moisture  
Dew Point 35 °F    
Average Humidity 67    
Maximum Humidity 100    
Minimum Humidity 33    
Precipitation  
Precipitation 0.07 in 0.02 in 0.13 in (1991)
Month to date precipitation 0.26 0.58  
Year to date precipitation 2.05 6.88  
Sea Level Pressure  
Sea Level Pressure 29.73 in    
Wind  
Wind Speed 9 mph (South)    
Max Wind Speed 18 mph    
Max Gust Speed 23 mph    
Visibility 9 miles    
Events Rain    
T = Trace of Precipitation, MM = Missing Value Source: NWS Daily Summary

Daily Weather History Graph

Daily Weather History Graph

Search for Another Location

Airport or City:

Trip Planner

Search our weather history database for the weather conditions in past years. The results will help you decide how hot, cold, wet, or windy it might be!

Date:

Astronomy

Oct. 23, 2012 Rise Set
Actual Time 7:37 AM MDT 6:14 PM MDT
Civil Twilight 7:07 AM MDT 6:43 PM MDT
Nautical Twilight 6:33 AM MDT 7:17 PM MDT
Astronomical Twilight 6:00 AM MDT 7:50 PM MDT
Moon 3:10 PM MDT (10/23) 1:20 AM MDT (10/23)
Length of Visible Light 11h 36m
Length of Day
10h 37m
Waxing Gibbous, 67% of the Moon is Illuminated
Oct 23
Waxing Gibbous
Oct 29
Full
Nov 6
Last Quarter
Nov 13
New
Nov 20
First Quarter

Hourly Weather History & Observations

Time (MDT) Temp. Windchill Dew Point Humidity Pressure Visibility Wind Dir Wind Speed Gust Speed Precip Events Conditions
12:53 AM 46.9 °F - 42.1 °F 83% 29.57 in 10.0 mi ESE 16.1 mph - N/A   Overcast
1:53 AM 46.0 °F 41.4 °F 43.0 °F 89% 29.57 in 7.0 mi SSE 9.2 mph - 0.01 in Rain Light Rain
2:21 AM 48.2 °F - 42.8 °F 82% 29.59 in 10.0 mi SSW 11.5 mph 20.7 mph 0.00 in   Overcast
2:53 AM 45.0 °F 41.2 °F 42.1 °F 90% 29.60 in 10.0 mi NW 6.9 mph - 0.00 in   Overcast
3:53 AM 44.1 °F 42.5 °F 42.1 °F 93% 29.62 in 10.0 mi NW 3.5 mph - 0.00 in   Overcast
4:53 AM 43.0 °F 39.5 °F 42.1 °F 97% 29.63 in 9.0 mi NW 5.8 mph - N/A   Mostly Cloudy
5:05 AM 42.8 °F 41.1 °F 42.8 °F 100% 29.64 in 9.0 mi NNW 3.5 mph - N/A   Overcast
5:53 AM 43.0 °F - 42.1 °F 97% 29.64 in 7.0 mi Calm Calm - N/A   Overcast
6:53 AM 43.0 °F - 41.0 °F 93% 29.66 in 6.0 mi Calm Calm - N/A   Overcast
7:53 AM 43.0 °F 38.2 °F 42.1 °F 97% 29.72 in 7.0 mi SW 8.1 mph - N/A   Overcast
8:47 AM 44.6 °F 39.2 °F 37.4 °F 76% 29.75 in 3.0 mi NW 10.4 mph - 0.04 in Rain Light Rain
9:19 AM 42.8 °F 37.5 °F 37.4 °F 81% 29.77 in 3.0 mi North 9.2 mph - 0.01 in Rain Light Rain
9:53 AM 43.0 °F 38.8 °F 37.9 °F 82% 29.76 in 10.0 mi ENE 6.9 mph - 0.02 in   Overcast
10:53 AM 44.1 °F 39.5 °F 39.0 °F 82% 29.78 in 10.0 mi SE 8.1 mph - N/A   Overcast
11:53 AM 46.0 °F 41.0 °F 39.0 °F 76% 29.78 in 10.0 mi SE 10.4 mph - 0.00 in   Mostly Cloudy
12:06 PM 46.4 °F 41.1 °F 39.2 °F 76% 29.78 in 10.0 mi SE 11.5 mph - N/A   Mostly Cloudy
12:33 PM 46.4 °F 40.7 °F 37.4 °F 71% 29.77 in 10.0 mi SE 12.7 mph - N/A   Mostly Cloudy
12:53 PM 46.9 °F - 39.0 °F 74% 29.75 in 10.0 mi SE 17.3 mph 23.0 mph N/A   Mostly Cloudy
1:53 PM 50.0 °F - 33.1 °F 52% 29.73 in 10.0 mi SE 9.2 mph - N/A   Overcast
2:53 PM 52.0 °F - 28.0 °F 40% 29.72 in 10.0 mi SW 11.5 mph - N/A   Overcast
3:53 PM 52.0 °F - 24.1 °F 34% 29.74 in 10.0 mi SW 18.4 mph 23.0 mph N/A   Overcast
4:53 PM 50.0 °F - 23.0 °F 35% 29.77 in 10.0 mi SW 16.1 mph - N/A   Partly Cloudy
5:53 PM 48.0 °F - 24.1 °F 39% 29.79 in 10.0 mi SSW 12.7 mph - N/A   Clear
6:53 PM 46.0 °F 40.2 °F 26.1 °F 46% 29.80 in 10.0 mi SSW 12.7 mph - N/A   Clear
7:53 PM 42.1 °F 37.7 °F 27.0 °F 55% 29.83 in 10.0 mi South 6.9 mph - N/A   Clear
8:53 PM 39.0 °F 33.4 °F 27.0 °F 62% 29.83 in 10.0 mi South 8.1 mph - N/A   Clear
9:53 PM 37.9 °F - 27.0 °F 65% 29.88 in 10.0 mi Calm Calm - N/A   Clear
10:53 PM 37.0 °F 33.3 °F 28.9 °F 73% 29.88 in 10.0 mi ENE 4.6 mph - N/A   Partly Cloudy
11:53 PM 36.0 °F 31.1 °F 28.9 °F 76% 29.90 in 10.0 mi ENE 5.8 mph - N/A   Scattered Clouds